QPF
0.00 0.00 0.00 0.00 0.00 0.00 0.00 0.00 0.00 0.00 0.00 0.00 0.00 0.00 0.00 0.00 0.00 0.00 0.00 0.00 0.00 0.00 0.00 0.00 0.00 0.00 0.00 0.00 0.00 0.00 0.00 0.00 0.00 0.00 0.00 0.00 0.00 0.00 0.00 0.00 0.00 0.00 0.00 0.00 0.00 0.00 0.00 0.00 0.00
0.00 0.00 0.00 0.00 0.00 0.00 0.00 0.00 0.00 0.00 0.00 0.00 0.00 0.00 0.00 0.00 0.00 0.00 0.00 0.00 0.00 0.00 0.00 0.00 0.00 0.00 0.00 0.00 0.00 0.00 0.00 0.00 0.00 0.00 0.00 0.00 0.00 0.00 0.00 0.00 0.00 0.00 0.00 0.00 0.00 0.00 0.00 0.00 0.00
0.00 0.00 0.00 0.00 0.00 0.00 0.00 0.00 0.00 0.00 0.00 0.00 0.00 0.00 0.00 0.00 0.00 0.00 0.00 0.00 0.00 0.00 0.00 0.00 0.00 0.00 0.00 0.00 0.00 0.00 0.00 0.00 0.00 0.00 0.00 0.00 0.00 0.00 0.00 0.00 0.00 0.00 0.00 0.00 0.00 0.00 0.00 0.00 0.00
0.00 0.00 0.00 0.00 0.00 0.00 0.00 0.00 0.00 0.00 0.00 0.00 0.00 0.00 0.00 0.00 0.00 0.00 0.00 0.00 0.00 0.00 0.00 0.00 0.00 0.00 0.00 0.00 0.00 0.00 0.00 0.00 0.00 0.00 0.00 0.00 0.00 0.00 0.00 0.00 0.00 0.00 0.00 0.00 0.00 0.00 0.00 0.00 0.00
0.00 0.00 0.00 0.00 0.00 0.00 0.00 0.00 0.00 0.00 0.00 0.00 0.00 0.00 0.00 0.00 0.00 0.00 0.00 0.00 0.00 0.00 0.00 0.00 0.00 0.00 0.00 0.00 0.00 0.00 0.00 0.00 0.00 0.00 0.00 0.00 0.00 0.00 0.00 0.00 0.00 0.00 0.00 0.00 0.00 0.00 0.00 0.00 0.00
0.00 0.00 0.00 0.00 0.00 0.00 0.00 0.00 0.00 0.00 0.00 0.00 0.00 0.00 0.00 0.00 0.00 0.00 0.00 0.00 0.00 0.00 0.00 0.00 0.00 0.00 0.00 0.00 0.00 0.00 0.00 0.00 0.00 0.00 0.00 0.00 0.00 0.00 0.00 0.00 0.00 0.00 0.00 0.00 0.00 0.00 0.00 0.00 0.00
0.00 0.00 0.00 0.00 0.00 0.00 0.00 0.00 0.00 0.00 0.00 0.00 0.00 0.00 0.00 0.00 0.00 0.00 0.00 0.00 0.00 0.00 0.00 0.00 0.00 0.00 0.00 0.00 0.00 0.00 0.00 0.00 0.00 0.00 0.00 0.00 0.00 0.00 0.00 0.00 0.00 0.00 0.00 0.00 0.00 0.00 0.00 0.00 0.00
0.00 0.00 0.00 0.00 0.00 0.00 0.00 0.00 0.00 0.00 0.00 0.00 0.00 0.00 0.00 0.00 0.00 0.00 0.00 0.00 0.00 0.00 0.00 0.00 0.00 0.00 0.00 0.00 0.00 0.00 0.00 0.00 0.00 0.00 0.00 0.00 0.00 0.00 0.00 0.00 0.00 0.00 0.00 0.00 0.00 0.00 0.00 0.00 0.00
0.00 0.00 0.00 0.00 0.00 0.00 0.00 0.00 0.00 0.00 0.00 0.00 0.00 0.00 0.00 0.00 0.00 0.00 0.00 0.00 0.00 0.00 0.00 0.00 0.00 0.00 0.00 0.00 0.00 0.00 0.00 0.00 0.00 0.00 0.00 0.00 0.00 0.00 0.00 0.00 0.00 0.00 0.00 0.00 0.00 0.00 0.00 0.00 0.00
0.00 0.00 0.00 0.00 0.00 0.00 0.00 0.00 0.00 0.00 0.00 0.00 0.00 0.00 0.00 0.00 0.00 0.00 0.00 0.00 0.00 0.00 0.00 0.00 0.00 0.00 0.00 0.00 0.00 0.00 0.00 0.00 0.00 0.00 0.00 0.00 0.00 0.00 0.00 0.00 0.00 0.00 0.00 0.00 0.00 0.00 0.00 0.00 0.00
0.00 0.00 0.00 0.00 0.00 0.00 0.00 0.00 0.00 0.00 0.00 0.00 0.00 0.00 0.00 0.00 0.00 0.00 0.00 0.00 0.00 0.00 0.00 0.00 0.00 0.00 0.00 0.00 0.00 0.00 0.00 0.00 0.00 0.00 0.00 0.00 0.00 0.00 0.00 0.00 0.00 0.00 0.00 0.00 0.00 0.00 0.00 0.00 0.00
0.00 0.00 0.00 0.00 0.00 0.00 0.00 0.00 0.00 0.00 0.00 0.00 0.00 0.00 0.00 0.00 0.00 0.00 0.00 0.00 0.00 0.00 0.00 0.00 0.00 0.00 0.00 0.00 0.00 0.00 0.00 0.00 0.00 0.00 0.00 0.00 0.00 0.00 0.00 0.00 0.00 0.00 0.00 0.00 0.00 0.00 0.00 0.00 0.00
0.00 0.00 0.00 0.00 0.00 0.00 0.00 0.00 0.00 0.00 0.00 0.00 0.00 0.00 0.00 0.00 0.00 0.00 0.00 0.00 0.00 0.00 0.00 0.00 0.00 0.00 0.00 0.00 0.00 0.00 0.00 0.00 0.00 0.00 0.00 0.00 0.00 0.00 0.00 0.00 0.00 0.00 0.00 0.00 0.00 0.00 0.00 0.00 0.00
0.00 0.00 0.00 0.00 0.00 0.00 0.00 0.00 0.00 0.00 0.00 0.00 0.00 0.00 0.00 0.00 0.00 0.00 0.00 0.00 0.00 0.00 0.00 0.00 0.00 0.00 0.00 0.00 0.00 0.00 0.00 0.00 0.00 0.00 0.00 0.00 0.00 0.00 0.00 0.00 0.00 0.00 0.00 0.00 0.00 0.00 0.00 0.00 0.00
0.00 0.00 0.00 0.00 0.00 0.00 0.00 0.00 0.00 0.00 0.00 0.00 0.00 0.00 0.00 0.00 0.00 0.00 0.00 0.00 0.00 0.00 0.00 0.00 0.00 0.00 0.00 0.00 0.00 0.00 0.00 0.00 0.00 0.00 0.00 0.00 0.00 0.00 0.00 0.00 0.00 0.00 0.00 0.00 0.00 0.00 0.00 0.00 0.00
0.00 0.00 0.00 0.00 0.00 0.00 0.00 0.00 0.00 0.00 0.00 0.00 0.00 0.00 0.00 0.00 0.00 0.00 0.00 0.00 0.00 0.00 0.00 0.00 0.00 0.00 0.00 0.00 0.00 0.00 0.00 0.00 0.00 0.00 0.00 0.00 0.00 0.00 0.00 0.00 0.00 0.00 0.00 0.00 0.00 0.00 0.00 0.00 0.00
0.00 0.00 0.00 0.00 0.00 0.00 0.00 0.00 0.00 0.00 0.00 0.00 0.00 0.00 0.00 0.00 0.00 0.00 0.00 0.00 0.00 0.00 0.00 0.00 0.00 0.00 0.00 0.00 0.00 0.00 0.00 0.00 0.00 0.00 0.00 0.00 0.00 0.00 0.00 0.00 0.00 0.00 0.00 0.00 0.00 0.00 0.00 0.00 0.00
0.00 0.00 0.00 0.00 0.00 0.00 0.00 0.00 0.00 0.00 0.00 0.00 0.00 0.00 0.00 0.00 0.00 0.00 0.00 0.00 0.00 0.00 0.00 0.00 0.00 0.00 0.00 0.00 0.00 0.00 0.00 0.00 0.00 0.00 0.00 0.00 0.00 0.00 0.00 0.00 0.00 0.00 0.00 0.00 0.00 0.00 0.00 0.00 0.00
0.00 0.00 0.00 0.00 0.00 0.00 0.00 0.00 0.00 0.00 0.00 0.00 0.00 0.00 0.00 0.00 0.00 0.00 0.00 0.00 0.00 0.00 0.00 0.00 0.00 0.00 0.00 0.00 0.00 0.00 0.00 0.00 0.00 0.00 0.00 0.00 0.00 0.00 0.00 0.00 0.00 0.00 0.00 0.00 0.00 0.00 0.00 0.00 0.00
0.00 0.00 0.00 0.00 0.00 0.00 0.00 0.00 0.00 0.00 0.00 0.00 0.00 0.00 0.00 0.00 0.00 0.00 0.00 0.00 0.00 0.00 0.00 0.00 0.00 0.00 0.00 0.00 0.00 0.00 0.00 0.00 0.00 0.00 0.00 0.00 0.00 0.00 0.00 0.00 0.00 0.00 0.00 0.00 0.00 0.00 0.00 0.00 0.00
0.00 0.00 0.00 0.00 0.00 0.00 0.00 0.00 0.00 0.00 0.00 0.00 0.00 0.00 0.00 0.00 0.00 0.00 0.00 0.00 0.00 0.00 0.00 0.00 0.00 0.00 0.00 0.00 0.00 0.00 0.00 0.00 0.00 0.00 0.00 0.00 0.00 0.00 0.00 0.00 0.00 0.00 0.00 0.00 0.00 0.00 0.00 0.00 0.00
0.00 0.00 0.00 0.00 0.00 0.00 0.00 0.00 0.00 0.00 0.00 0.00 0.00 0.00 0.00 0.00 0.00 0.00 0.00 0.00 0.00 0.00 0.00 0.00 0.00 0.00 0.00 0.00 0.00 0.00 0.00 0.00 0.00 0.00 0.00 0.00 0.00 0.00 0.00 0.00 0.00 0.00 0.00 0.00 0.00 0.00 0.00 0.00 0.00
0.00 0.00 0.00 0.00 0.00 0.00 0.00 0.00 0.00 0.00 0.00 0.00 0.00 0.00 0.00 0.00 0.00 0.00 0.00 0.00 0.00 0.00 0.00 0.00 0.00 0.00 0.00 0.00 0.00 0.00 0.00 0.00 0.00 0.00 0.00 0.00 0.00 0.00 0.00 0.00 0.00 0.00 0.00 0.00 0.00 0.00 0.00 0.00 0.00
0.00 0.00 0.00 0.00 0.00 0.00 0.00 0.00 0.00 0.00 0.00 0.00 0.00 0.00 0.00 0.00 0.00 0.00 0.00 0.00 0.00 0.00 0.00 0.00 0.00 0.00 0.00 0.00 0.00 0.00 0.00 0.00 0.00 0.00 0.00 0.00 0.00 0.00 0.00 0.00 0.00 0.00 0.00 0.00 0.00 0.00 0.00 0.00 0.00
0.00 0.00 0.00 0.00 0.00 0.00 0.00 0.00 0.00 0.00 0.00 0.00 0.00 0.00 0.00 0.00 0.00 0.00 0.00 0.00 0.00 0.00 0.00 0.00 0.00 0.00 0.00 0.00 0.00 0.00 0.00 0.00 0.00 0.00 0.00 0.00 0.00 0.00 0.00 0.00 0.00 0.00 0.00 0.00 0.00 0.00 0.00 0.00 0.00
0.00 0.00 0.00 0.00 0.00 0.00 0.00 0.00 0.00 0.00 0.00 0.00 0.00 0.00 0.00 0.00 0.00 0.00 0.00 0.00 0.00 0.00 0.00 0.00 0.00 0.00 0.00 0.00 0.00 0.00 0.00 0.00 0.00 0.00 0.00 0.00 0.00 0.00 0.00 0.00 0.00 0.00 0.00 0.00 0.00 0.00 0.00 0.00 0.00
0.00 0.00 0.00 0.00 0.00 0.00 0.00 0.00 0.00 0.00 0.00 0.00 0.00 0.00 0.00 0.00 0.00 0.00 0.00 0.00 0.00 0.00 0.00 0.00 0.00 0.00 0.00 0.00 0.00 0.00 0.00 0.00 0.00 0.00 0.00 0.00 0.00 0.00 0.00 0.00 0.00 0.00 0.00 0.00 0.00 0.00 0.00 0.00 0.00
0.00 0.00 0.00 0.00 0.00 0.00 0.00 0.00 0.00 0.00 0.00 0.00 0.00 0.00 0.00 0.00 0.00 0.00 0.00 0.00 0.00 0.00 0.00 0.00 0.00 0.00 0.00 0.00 0.00 0.00 0.00 0.00 0.00 0.00 0.00 0.00 0.00 0.00 0.00 0.00 0.00 0.00 0.00 0.00 0.00 0.00 0.00 0.00 0.00
0.00 0.00 0.00 0.00 0.00 0.00 0.00 0.00 0.00 0.00 0.00 0.00 0.00 0.00 0.00 0.00 0.00 0.00 0.00 0.00 0.00 0.00 0.00 0.00 0.00 0.00 0.00 0.00 0.00 0.00 0.00 0.00 0.00 0.00 0.00 0.00 0.00 0.00 0.00 0.00 0.00 0.00 0.00 0.00 0.00 0.00 0.00 0.00 0.00
0.00 0.00 0.00 0.00 0.00 0.00 0.00 0.00 0.00 0.00 0.00 0.00 0.00 0.00 0.00 0.00 0.00 0.00 0.00 0.00 0.00 0.00 0.00 0.00 0.00 0.00 0.00 0.00 0.00 0.00 0.00 0.00 0.00 0.00 0.00 0.00 0.00 0.00 0.00 0.00 0.00 0.00 0.00 0.00 0.00 0.00 0.00 0.00 0.00
MSLP
1015.05 1015.89 1016.96 1018.09 1019.14 1019.95 1020.45 1020.59 1020.42 1020.02 1019.53 1019.06 1018.70 1018.50 1018.46 1018.54 1018.68 1018.84 1018.96 1019.04 1019.12 1019.22 1019.38 1019.64 1020.00 1020.45 1020.93 1021.40 1021.82 1022.16 1022.41 1022.60 1022.75 1022.91 1023.10 1023.33 1023.60 1023.88 1024.15 1024.38 1024.54 1024.63 1024.66 1024.65 1024.61 1024.57 1024.55 1024.56 1024.59
1015.40 1016.41 1017.58 1018.73 1019.71 1020.37 1020.65 1020.55 1020.13 1019.50 1018.82 1018.21 1017.77 1017.53 1017.49 1017.60 1017.80 1018.02 1018.21 1018.38 1018.53 1018.71 1018.94 1019.27 1019.68 1020.17 1020.68 1021.18 1021.63 1022.01 1022.31 1022.56 1022.78 1023.01 1023.26 1023.55 1023.86 1024.17 1024.45 1024.68 1024.83 1024.92 1024.95 1024.93 1024.90 1024.88 1024.88 1024.91 1024.97
1015.88 1017.01 1018.20 1019.30 1020.13 1020.59 1020.64 1020.29 1019.65 1018.84 1018.04 1017.36 1016.89 1016.67 1016.68 1016.85 1017.11 1017.40 1017.67 1017.91 1018.13 1018.38 1018.67 1019.04 1019.50 1020.00 1020.53 1021.04 1021.50 1021.90 1022.23 1022.51 1022.78 1023.05 1023.34 1023.66 1023.99 1024.30 1024.58 1024.80 1024.95 1025.03 1025.07 1025.08 1025.08 1025.10 1025.14 1025.21 1025.31
1016.49 1017.66 1018.80 1019.77 1020.41 1020.64 1020.45 1019.88 1019.07 1018.15 1017.29 1016.61 1016.18 1016.02 1016.10 1016.34 1016.67 1017.02 1017.35 1017.65 1017.93 1018.22 1018.56 1018.96 1019.43 1019.94 1020.46 1020.96 1021.41 1021.80 1022.13 1022.43 1022.72 1023.01 1023.32 1023.65 1023.97 1024.28 1024.54 1024.75 1024.90 1025.00 1025.07 1025.12 1025.18 1025.25 1025.35 1025.48 1025.62
1017.18 1018.32 1019.35 1020.13 1020.55 1020.54 1020.13 1019.40 1018.48 1017.52 1016.68 1016.06 1015.72 1015.65 1015.81 1016.12 1016.50 1016.89 1017.25 1017.57 1017.88 1018.20 1018.56 1018.98 1019.45 1019.94 1020.44 1020.90 1021.32 1021.69 1022.01 1022.31 1022.60 1022.90 1023.22 1023.54 1023.86 1024.15 1024.40 1024.60 1024.76 1024.89 1025.00 1025.11 1025.23 1025.38 1025.54 1025.72 1025.91
1017.86 1018.90 1019.77 1020.34 1020.52 1020.31 1019.73 1018.89 1017.94 1017.03 1016.27 1015.77 1015.54 1015.57 1015.81 1016.16 1016.56 1016.95 1017.30 1017.62 1017.93 1018.25 1018.62 1019.03 1019.48 1019.95 1020.41 1020.84 1021.22 1021.56 1021.86 1022.15 1022.44 1022.75 1023.08 1023.40 1023.71 1024.00 1024.25 1024.45 1024.63 1024.79 1024.94 1025.11 1025.30 1025.50 1025.72 1025.94 1026.16
1018.42 1019.33 1020.01 1020.36 1020.33 1019.95 1019.26 1018.40 1017.49 1016.68 1016.06 1015.70 1015.60 1015.73 1016.02 1016.38 1016.76 1017.12 1017.43 1017.71 1017.99 1018.30 1018.65 1019.05 1019.48 1019.92 1020.35 1020.74 1021.09 1021.40 1021.69 1021.98 1022.28 1022.61 1022.95 1023.29 1023.62 1023.91 1024.17 1024.39 1024.58 1024.76 1024.96 1025.16 1025.40 1025.64 1025.89 1026.14 1026.36
1018.79 1019.54 1020.01 1020.16 1019.97 1019.46 1018.74 1017.91 1017.11 1016.44 1015.99 1015.78 1015.81 1016.01 1016.31 1016.65 1016.98 1017.26 1017.50 1017.73 1017.97 1018.25 1018.59 1018.98 1019.40 1019.83 1020.23 1020.60 1020.92 1021.22 1021.51 1021.82 1022.15 1022.51 1022.89 1023.27 1023.62 1023.94 1024.21 1024.44 1024.64 1024.84 1025.05 1025.28 1025.53 1025.79 1026.04 1026.29 1026.50
1018.93 1019.50 1019.79 1019.77 1019.44 1018.88 1018.16 1017.42 1016.75 1016.25 1015.96 1015.90 1016.01 1016.25 1016.55 1016.83 1017.08 1017.27 1017.43 1017.60 1017.80 1018.07 1018.40 1018.80 1019.23 1019.65 1020.05 1020.41 1020.73 1021.03 1021.34 1021.68 1022.05 1022.46 1022.89 1023.32 1023.72 1024.07 1024.36 1024.60 1024.81 1025.01 1025.21 1025.43 1025.67 1025.91 1026.15 1026.37 1026.56
1018.86 1019.26 1019.38 1019.22 1018.80 1018.22 1017.55 1016.91 1016.38 1016.04 1015.90 1015.94 1016.11 1016.35 1016.60 1016.81 1016.96 1017.06 1017.15 1017.27 1017.45 1017.72 1018.07 1018.49 1018.95 1019.39 1019.81 1020.18 1020.52 1020.84 1021.17 1021.55 1021.97 1022.44 1022.93 1023.41 1023.86 1024.24 1024.56 1024.81 1025.02 1025.20 1025.38 1025.57 1025.78 1025.99 1026.20 1026.39 1026.55
1018.66 1018.90 1018.87 1018.60 1018.14 1017.56 1016.95 1016.41 1016.00 1015.77 1015.73 1015.82 1016.01 1016.22 1016.39 1016.51 1016.57 1016.60 1016.63 1016.72 1016.90 1017.20 1017.59 1018.06 1018.56 1019.06 1019.51 1019.91 1020.27 1020.62 1020.99 1021.40 1021.87 1022.39 1022.93 1023.47 1023.96 1024.38 1024.72 1024.98 1025.18 1025.34 1025.50 1025.65 1025.83 1026.00 1026.18 1026.35 1026.48
1018.43 1018.53 1018.39 1018.04 1017.54 1016.97 1016.41 1015.94 1015.62 1015.46 1015.45 1015.55 1015.70 1015.84 1015.93 1015.96 1015.93 1015.90 1015.90 1015.99 1016.20 1016.54 1017.00 1017.53 1018.10 1018.64 1019.14 1019.59 1019.98 1020.36 1020.76 1021.20 1021.71 1022.26 1022.84 1023.42 1023.94 1024.39 1024.75 1025.02 1025.22 1025.37 1025.51 1025.64 1025.79 1025.94 1026.10 1026.25 1026.37
1018.29 1018.28 1018.05 1017.64 1017.12 1016.55 1016.02 1015.58 1015.29 1015.13 1015.11 1015.15 1015.23 1015.28 1015.27 1015.21 1015.12 1015.04 1015.03 1015.14 1015.39 1015.79 1016.31 1016.92 1017.55 1018.16 1018.71 1019.20 1019.63 1020.04 1020.46 1020.92 1021.44 1022.00 1022.60 1023.20 1023.74 1024.21 1024.59 1024.88 1025.09 1025.25 1025.38 1025.52 1025.66 1025.82 1025.97 1026.12 1026.23
1018.31 1018.21 1017.91 1017.46 1016.92 1016.35 1015.83 1015.39 1015.07 1014.87 1014.77 1014.73 1014.70 1014.64 1014.55 1014.41 1014.26 1014.16 1014.14 1014.27 1014.55 1015.00 1015.58 1016.24 1016.94 1017.60 1018.20 1018.74 1019.20 1019.63 1020.06 1020.52 1021.04 1021.60 1022.19 1022.77 1023.32 1023.81 1024.21 1024.52 1024.76 1024.95 1025.12 1025.28 1025.45 1025.63 1025.81 1025.96 1026.09
1018.50 1018.33 1017.99 1017.51 1016.96 1016.39 1015.85 1015.38 1015.01 1014.74 1014.54 1014.38 1014.24 1014.08 1013.89 1013.68 1013.49 1013.36 1013.34 1013.48 1013.78 1014.24 1014.85 1015.55 1016.28 1016.98 1017.63 1018.20 1018.69 1019.14 1019.58 1020.03 1020.52 1021.05 1021.61 1022.18 1022.72 1023.21 1023.63 1023.98 1024.27 1024.52 1024.74 1024.96 1025.18 1025.40 1025.61 1025.79 1025.92
1018.78 1018.57 1018.21 1017.73 1017.19 1016.62 1016.07 1015.56 1015.13 1014.76 1014.46 1014.19 1013.94 1013.68 1013.42 1013.16 1012.93 1012.77 1012.73 1012.85 1013.13 1013.58 1014.17 1014.87 1015.60 1016.32 1017.00 1017.60 1018.12 1018.59 1019.02 1019.46 1019.92 1020.41 1020.93 1021.46 1021.98 1022.47 1022.91 1023.31 1023.65 1023.97 1024.27 1024.56 1024.84 1025.12 1025.37 1025.57 1025.71
1019.06 1018.83 1018.48 1018.03 1017.52 1016.97 1016.42 1015.89 1015.40 1014.95 1014.55 1014.19 1013.84 1013.51 1013.19 1012.89 1012.63 1012.44 1012.37 1012.43 1012.66 1013.05 1013.59 1014.24 1014.94 1015.66 1016.34 1016.96 1017.51 1018.00 1018.44 1018.86 1019.28 1019.73 1020.19 1020.68 1021.17 1021.65 1022.11 1022.54 1022.95 1023.33 1023.71 1024.08 1024.43 1024.75 1025.04 1025.26 1025.40
1019.20 1018.99 1018.69 1018.31 1017.86 1017.37 1016.84 1016.31 1015.78 1015.27 1014.80 1014.36 1013.95 1013.58 1013.22 1012.90 1012.61 1012.39 1012.26 1012.26 1012.40 1012.69 1013.14 1013.70 1014.35 1015.03 1015.71 1016.34 1016.91 1017.41 1017.86 1018.26 1018.65 1019.04 1019.45 1019.88 1020.33 1020.79 1021.26 1021.72 1022.18 1022.62 1023.06 1023.49 1023.90 1024.27 1024.58 1024.81 1024.95
1019.14 1018.98 1018.77 1018.49 1018.15 1017.74 1017.27 1016.74 1016.20 1015.65 1015.13 1014.65 1014.21 1013.81 1013.45 1013.12 1012.83 1012.58 1012.40 1012.31 1012.35 1012.52 1012.84 1013.29 1013.86 1014.48 1015.14 1015.77 1016.35 1016.86 1017.31 1017.70 1018.05 1018.39 1018.73 1019.10 1019.50 1019.93 1020.38 1020.85 1021.34 1021.82 1022.31 1022.77 1023.21 1023.61 1023.94 1024.18 1024.31
1018.87 1018.80 1018.71 1018.57 1018.36 1018.05 1017.65 1017.16 1016.61 1016.05 1015.49 1014.98 1014.53 1014.14 1013.80 1013.49 1013.20 1012.94 1012.72 1012.55 1012.48 1012.53 1012.72 1013.05 1013.51 1014.06 1014.67 1015.28 1015.86 1016.37 1016.81 1017.17 1017.48 1017.76 1018.04 1018.33 1018.67 1019.05 1019.47 1019.93 1020.41 1020.91 1021.41 1021.89 1022.34 1022.75 1023.08 1023.33 1023.47
1018.44 1018.50 1018.56 1018.58 1018.52 1018.32 1017.99 1017.54 1016.99 1016.40 1015.82 1015.29 1014.84 1014.47 1014.16 1013.90 1013.64 1013.40 1013.15 1012.93 1012.77 1012.71 1012.77 1012.97 1013.32 1013.79 1014.33 1014.91 1015.46 1015.95 1016.36 1016.68 1016.93 1017.14 1017.34 1017.56 1017.82 1018.13 1018.50 1018.92 1019.38 1019.86 1020.34 1020.81 1021.25 1021.65 1021.99 1022.25 1022.42
1017.99 1018.20 1018.44 1018.62 1018.70 1018.61 1018.33 1017.89 1017.32 1016.70 1016.08 1015.53 1015.08 1014.74 1014.48 1014.27 1014.08 1013.87 1013.63 1013.39 1013.17 1013.02 1012.97 1013.06 1013.30 1013.67 1014.13 1014.64 1015.13 1015.57 1015.93 1016.19 1016.37 1016.50 1016.61 1016.74 1016.91 1017.14 1017.45 1017.81 1018.22 1018.66 1019.11 1019.55 1019.96 1020.35 1020.69 1020.97 1021.18
1017.64 1018.02 1018.43 1018.78 1018.97 1018.95 1018.71 1018.24 1017.63 1016.94 1016.27 1015.68 1015.22 1014.90 1014.70 1014.56 1014.44 1014.30 1014.11 1013.88 1013.64 1013.42 1013.29 1013.28 1013.41 1013.68 1014.04 1014.45 1014.87 1015.23 1015.51 1015.69 1015.78 1015.82 1015.83 1015.86 1015.94 1016.09 1016.31 1016.61 1016.95 1017.33 1017.73 1018.12 1018.51 1018.87 1019.21 1019.52 1019.80
1017.50 1018.05 1018.62 1019.09 1019.36 1019.38 1019.12 1018.60 1017.91 1017.13 1016.39 1015.75 1015.28 1014.98 1014.82 1014.76 1014.73 1014.67 1014.54 1014.35 1014.11 1013.87 1013.68 1013.58 1013.61 1013.77 1014.02 1014.33 1014.64 1014.89 1015.08 1015.16 1015.15 1015.08 1015.00 1014.93 1014.92 1014.98 1015.12 1015.34 1015.61 1015.93 1016.26 1016.61 1016.95 1017.29 1017.63 1017.97 1018.30
1017.59 1018.29 1018.98 1019.54 1019.85 1019.86 1019.55 1018.95 1018.16 1017.28 1016.45 1015.76 1015.27 1014.98 1014.87 1014.88 1014.93 1014.96 1014.90 1014.76 1014.55 1014.30 1014.07 1013.91 1013.85 1013.90 1014.04 1014.22 1014.41 1014.56 1014.62 1014.59 1014.48 1014.32 1014.14 1013.98 1013.88 1013.85 1013.91 1014.06 1014.26 1014.50 1014.77 1015.06 1015.36 1015.67 1016.00 1016.36 1016.74
1017.86 1018.68 1019.44 1020.04 1020.35 1020.31 1019.92 1019.23 1018.34 1017.38 1016.47 1015.73 1015.22 1014.94 1014.88 1014.95 1015.07 1015.17 1015.19 1015.10 1014.91 1014.67 1014.41 1014.20 1014.06 1014.01 1014.04 1014.11 1014.18 1014.20 1014.16 1014.02 1013.81 1013.55 1013.28 1013.04 1012.86 1012.76 1012.75 1012.82 1012.95 1013.12 1013.32 1013.55 1013.80 1014.07 1014.39 1014.75 1015.15
1018.21 1019.09 1019.88 1020.46 1020.72 1020.62 1020.15 1019.37 1018.40 1017.38 1016.43 1015.67 1015.15 1014.90 1014.86 1014.98 1015.16 1015.31 1015.38 1015.33 1015.17 1014.93 1014.66 1014.40 1014.21 1014.08 1014.01 1013.97 1013.93 1013.85 1013.70 1013.47 1013.17 1012.83 1012.48 1012.17 1011.92 1011.75 1011.67 1011.67 1011.73 1011.84 1011.97 1012.13 1012.32 1012.54 1012.82 1013.16 1013.56
1018.52 1019.39 1020.15 1020.66 1020.85 1020.66 1020.12 1019.29 1018.29 1017.25 1016.31 1015.56 1015.08 1014.85 1014.85 1015.00 1015.20 1015.39 1015.48 1015.45 1015.30 1015.07 1014.79 1014.50 1014.26 1014.07 1013.93 1013.81 1013.68 1013.51 1013.28 1012.97 1012.60 1012.19 1011.78 1011.41 1011.10 1010.87 1010.72 1010.66 1010.64 1010.68 1010.74 1010.83 1010.94 1011.11 1011.33 1011.63 1011.99
1018.67 1019.47 1020.13 1020.54 1020.63 1020.36 1019.78 1018.94 1017.96 1016.97 1016.09 1015.42 1014.99 1014.81 1014.84 1015.00 1015.22 1015.40 1015.49 1015.46 1015.31 1015.07 1014.78 1014.48 1014.21 1013.99 1013.80 1013.62 1013.44 1013.21 1012.91 1012.54 1012.12 1011.66 1011.21 1010.78 1010.42 1010.13 1009.92 1009.78 1009.70 1009.65 1009.64 1009.64 1009.69 1009.78 1009.93 1010.16 1010.47
1018.62 1019.28 1019.80 1020.07 1020.05 1019.73 1019.13 1018.34 1017.44 1016.56 1015.80 1015.23 1014.89 1014.78 1014.84 1015.00 1015.20 1015.36 1015.42 1015.36 1015.20 1014.95 1014.66 1014.36 1014.08 1013.84 1013.64 1013.43 1013.21 1012.94 1012.61 1012.20 1011.74 1011.25 1010.75 1010.28 1009.87 1009.52 1009.24 1009.03 1008.87 1008.74 1008.64 1008.57 1008.53 1008.54 1008.62 1008.77 1009.01
Thickness
5743 5742 5740 5729 5705 5684 5683 5697 5706 5708 5712 5722 5725 5722 5716 5712 5708 5707 5718 5718 5716 5710 5704 5701 5696 5692 5689 5686 5683 5680 5678 5676 5674 5672 5670 5669 5667 5666 5665 5664 5662 5661 5661 5660 5660 5660 5660 5660 5660
5744 5743 5732 5715 5690 5675 5683 5702 5705 5715 5722 5725 5726 5724 5719 5718 5721 5717 5714 5716 5715 5711 5706 5702 5697 5693 5689 5686 5682 5679 5677 5674 5672 5669 5667 5666 5664 5662 5661 5659 5658 5657 5656 5655 5655 5654 5654 5654 5654
5745 5741 5721 5703 5688 5680 5694 5708 5710 5721 5724 5724 5722 5725 5723 5724 5722 5719 5721 5718 5714 5709 5705 5701 5697 5692 5689 5685 5681 5678 5675 5672 5670 5667 5665 5663 5661 5659 5657 5656 5654 5653 5652 5651 5650 5649 5649 5649 5649
5740 5727 5714 5696 5693 5699 5707 5716 5715 5715 5719 5723 5721 5720 5726 5732 5730 5727 5724 5718 5713 5708 5704 5700 5696 5692 5688 5684 5680 5677 5674 5671 5668 5665 5663 5660 5658 5656 5654 5652 5650 5649 5647 5646 5645 5645 5644 5644 5643
5734 5716 5701 5689 5694 5707 5717 5723 5719 5713 5716 5721 5720 5718 5722 5730 5731 5728 5724 5718 5713 5707 5703 5698 5694 5690 5686 5682 5679 5675 5672 5669 5666 5663 5661 5658 5655 5653 5650 5648 5646 5645 5643 5642 5641 5640 5639 5638 5638
5719 5707 5688 5682 5692 5707 5718 5725 5719 5716 5717 5719 5717 5716 5723 5724 5724 5724 5722 5717 5711 5706 5701 5696 5692 5688 5684 5680 5677 5674 5670 5667 5664 5661 5658 5656 5653 5650 5647 5645 5643 5641 5639 5638 5636 5635 5633 5633 5632
5713 5699 5690 5691 5692 5700 5717 5725 5720 5719 5718 5719 5720 5714 5720 5719 5719 5719 5716 5711 5705 5701 5697 5693 5691 5686 5682 5679 5675 5672 5668 5665 5662 5659 5656 5653 5650 5648 5645 5642 5640 5638 5636 5634 5632 5630 5629 5628 5627
5719 5701 5697 5692 5693 5699 5717 5724 5726 5723 5722 5728 5723 5714 5716 5718 5715 5711 5707 5702 5699 5695 5693 5690 5688 5685 5681 5677 5673 5670 5666 5663 5660 5657 5654 5651 5648 5645 5643 5640 5637 5635 5633 5630 5628 5626 5624 5623 5622
5721 5693 5685 5692 5697 5704 5718 5719 5724 5727 5724 5725 5724 5723 5725 5719 5711 5704 5699 5695 5693 5691 5690 5687 5685 5682 5678 5675 5671 5668 5664 5661 5658 5655 5651 5648 5645 5643 5640 5637 5634 5632 5629 5627 5625 5622 5620 5618 5617
5708 5687 5693 5706 5710 5711 5716 5716 5719 5718 5714 5716 5720 5717 5714 5712 5709 5704 5701 5697 5694 5692 5690 5687 5683 5680 5676 5672 5669 5666 5662 5659 5656 5653 5649 5646 5642 5639 5636 5633 5631 5629 5626 5624 5621 5618 5616 5614 5612
5707 5698 5705 5713 5718 5717 5715 5715 5718 5714 5708 5713 5717 5717 5707 5705 5704 5704 5704 5703 5702 5697 5690 5686 5683 5678 5674 5670 5667 5663 5660 5656 5653 5650 5646 5643 5639 5635 5632 5629 5627 5625 5623 5620 5617 5614 5612 5610 5607
5709 5709 5712 5715 5720 5717 5715 5715 5713 5712 5717 5725 5724 5719 5707 5703 5703 5704 5704 5704 5700 5695 5691 5687 5682 5677 5673 5669 5665 5661 5657 5653 5650 5647 5643 5639 5635 5631 5628 5625 5623 5620 5618 5615 5612 5609 5607 5604 5602
5706 5709 5714 5716 5714 5715 5715 5711 5710 5713 5725 5723 5722 5716 5709 5707 5707 5709 5708 5705 5699 5695 5692 5687 5682 5677 5672 5667 5662 5658 5654 5651 5647 5643 5640 5636 5632 5628 5624 5621 5618 5616 5613 5610 5607 5604 5601 5598 5596
5708 5708 5707 5710 5713 5714 5711 5708 5706 5717 5725 5722 5720 5717 5713 5712 5712 5707 5702 5701 5699 5697 5693 5688 5682 5677 5671 5666 5662 5658 5653 5649 5644 5640 5637 5633 5629 5624 5620 5616 5613 5610 5607 5605 5602 5599 5595 5593 5590
5704 5700 5698 5707 5710 5711 5709 5699 5702 5718 5718 5715 5716 5716 5715 5714 5713 5709 5709 5707 5703 5699 5694 5687 5682 5675 5670 5665 5660 5655 5650 5646 5642 5638 5634 5630 5626 5621 5616 5612 5608 5605 5602 5599 5595 5592 5589 5586 5584
5694 5686 5681 5697 5705 5704 5701 5688 5705 5714 5711 5710 5711 5711 5713 5714 5713 5713 5710 5706 5702 5696 5691 5686 5680 5673 5668 5663 5658 5653 5648 5643 5639 5635 5630 5626 5622 5617 5612 5608 5604 5600 5596 5592 5588 5585 5581 5579 5577
5676 5669 5673 5684 5698 5696 5693 5689 5705 5708 5706 5703 5703 5705 5709 5711 5712 5711 5709 5707 5702 5696 5689 5682 5677 5672 5666 5660 5655 5650 5645 5640 5636 5631 5627 5622 5617 5612 5608 5604 5600 5595 5590 5586 5582 5579 5575 5572 5569
5668 5668 5668 5671 5688 5690 5682 5684 5700 5704 5701 5698 5697 5699 5702 5705 5707 5709 5709 5707 5701 5694 5687 5680 5674 5669 5662 5654 5648 5643 5639 5636 5632 5628 5624 5619 5614 5608 5603 5599 5595 5589 5584 5580 5576 5572 5568 5565 5561
5672 5668 5663 5670 5683 5684 5680 5681 5693 5698 5697 5694 5692 5692 5695 5697 5701 5704 5704 5701 5695 5688 5682 5677 5671 5665 5657 5649 5643 5639 5636 5633 5629 5626 5621 5616 5611 5605 5599 5595 5589 5583 5579 5576 5571 5565 5560 5556 5549
5671 5665 5662 5669 5678 5677 5674 5675 5686 5693 5693 5690 5688 5687 5687 5689 5691 5694 5693 5690 5686 5682 5677 5672 5667 5662 5656 5651 5645 5639 5634 5630 5626 5621 5616 5612 5606 5601 5596 5591 5586 5580 5574 5569 5565 5558 5552 5548 5540
5669 5664 5663 5664 5666 5669 5668 5670 5677 5685 5685 5683 5682 5681 5681 5681 5680 5681 5682 5680 5676 5673 5670 5669 5663 5658 5652 5647 5639 5631 5625 5621 5616 5612 5610 5607 5602 5598 5593 5588 5582 5576 5570 5566 5560 5553 5546 5541 5534
5658 5670 5667 5665 5655 5648 5653 5643 5661 5674 5675 5675 5673 5671 5671 5671 5671 5670 5670 5670 5667 5665 5662 5659 5655 5651 5645 5638 5632 5625 5621 5619 5617 5614 5609 5604 5598 5594 5589 5583 5578 5572 5566 5562 5556 5548 5542 5534 5529
5665 5669 5664 5661 5652 5642 5643 5638 5647 5663 5663 5665 5665 5664 5663 5662 5660 5659 5658 5658 5657 5655 5652 5649 5646 5641 5636 5631 5626 5620 5617 5616 5612 5606 5601 5597 5593 5589 5584 5579 5573 5567 5562 5558 5551 5544 5537 5531 5526
5666 5658 5651 5641 5634 5633 5645 5634 5641 5650 5659 5659 5658 5656 5654 5652 5651 5650 5649 5648 5646 5644 5642 5639 5636 5632 5628 5622 5617 5613 5610 5607 5602 5598 5594 5590 5587 5583 5578 5572 5567 5562 5557 5552 5546 5539 5532 5527 5522
5655 5640 5627 5630 5622 5629 5640 5637 5641 5659 5663 5658 5652 5647 5645 5644 5641 5641 5640 5638 5637 5635 5633 5630 5627 5623 5619 5614 5609 5606 5603 5599 5595 5593 5588 5584 5580 5576 5572 5565 5561 5557 5552 5546 5540 5533 5527 5521 5516
5649 5637 5621 5618 5612 5616 5629 5631 5643 5654 5657 5653 5646 5641 5638 5637 5634 5634 5633 5630 5628 5628 5625 5621 5618 5615 5611 5607 5603 5599 5595 5591 5589 5586 5582 5578 5575 5572 5567 5560 5556 5551 5546 5540 5533 5527 5522 5515 5510
5644 5633 5630 5614 5611 5607 5613 5626 5639 5645 5642 5639 5635 5632 5630 5629 5629 5627 5626 5623 5621 5619 5616 5612 5609 5606 5603 5599 5595 5591 5587 5583 5580 5577 5573 5569 5567 5563 5558 5552 5548 5543 5538 5532 5526 5521 5516 5510 5505
5643 5630 5615 5609 5600 5595 5604 5613 5624 5633 5631 5629 5626 5624 5624 5623 5622 5621 5617 5614 5611 5609 5606 5603 5600 5597 5594 5590 5586 5583 5579 5575 5571 5567 5562 5559 5556 5552 5547 5542 5537 5533 5528 5522 5516 5513 5509 5502 5499
5628 5625 5617 5602 5594 5587 5588 5605 5629 5633 5628 5623 5621 5619 5617 5616 5614 5611 5608 5605 5601 5598 5595 5592 5589 5586 5583 5580 5576 5572 5568 5564 5559 5554 5551 5548 5544 5539 5534 5530 5526 5521 5517 5511 5506 5504 5500 5494 5491
5628 5623 5611 5600 5596 5586 5580 5601 5631 5627 5624 5620 5616 5615 5612 5609 5605 5601 5596 5592 5589 5587 5584 5580 5577 5574 5571 5568 5564 5559 5555 5550 5545 5541 5537 5533 5529 5525 5520 5516 5512 5509 5505 5500 5496 5493 5490 5485 5482